STARLINK-34208

Last updated on Sat Aug 02 2025 00:02:05 GMT+0000 (Coordinated Universal Time)

1 64740U 25144S 25213.58335648 .00071285 00000+0 17778-2 0 9996 2 64740 53.1596 124.8933 0000944 96.1669 194.4789 15.39580262 6094
UTC large
Height (km)
Speed (km/s)
/
Latitude / Longitude
Inclination (degrees)
Orbital Period (minutes)
Azimuth
Elevation
Range (km)
Doppler Factor

Next 0 passes for location: London (51.5072 / 0.1276)

Sorry there are no passes over London.